Location: Morlupo
(42.1333°N, 12.5000°E)
Time: 15:58:12
(UTC+00:00)

Cosmos 2263 Rocket - Pass Details

Date: 18 September 2020
Orbit: 822 x 850 km, 71.0° (Epoch: 25 October)

Event Time Altitude Azimuth Distance (km) Brightness Sun altitude
Rises 17:46:09 0° 199° (SSW) 3,341 5.5 -6.8°
Reaches altitude 10° 17:48:34 10° 198° (SSW) 2,413 4.7 -7.3°
Maximum altitude 17:54:06 81° 112° (ESE) 840 2.1 -8.3°
Drops below altitude 10° 17:59:41 10° 26° (NNE) 2,440 4.5 -9.3°
Sets 18:02:08 0° 26° (NNE) 3,381 5.2 -9.7°
